Hourly Data Report for November 03, 2019

All times are specified in Local Standard Time (LST). Add 1 hour to adjust for Daylight Saving Time where and when it is observed.

SAINT JOHN A
NEW BRUNSWICK
Current Station Operator: NAVCAN

45°18'58.000" N
65°53'24.000" W
108.80 m
8104901
71609
YSJ

Download Data

Hourly Data (November 2019)
Hourly Data Report for November 3, 2019
TIME Temp Definition
°C
Dew Point Definition
°C
Rel Hum Definition
%
Wind Dir Definition
10's deg

Wind Spd Definition
km/h
Visibility Definition
km
Stn Press Definition
kPa
Hmdx Definition


Wind Chill Definition


Weather Definition


00:00 -0.9 -1.5 96 36 2 24.1 100.50   -2 LegendNANA
01:00 0.2 -0.4 96 2 3 24.1 100.46     LegendNANA
02:00 -0.6 -0.9 98 8 5 24.1 100.35   -2 Cloudy
03:00 0.2 -0.5 95 5 3 24.1 100.17     LegendNANA
04:00 -0.4 -1.0 96 2 6 24.1 100.02   -2 LegendNANA
05:00 0.0 -0.6 96 33 3 24.1 100.05   -1 Cloudy
06:00 1.4 0.7 95 3 7 24.1 99.91     LegendNANA
07:00 3.8 3.0 94 11 12 12.9 99.93     Rain
08:00 3.4 2.7 95 6 7 24.1 99.84     Cloudy
09:00 4.7 3.8 94 1 12 24.1 99.77     Rain Showers
10:00 5.0 4.2 95 2 12 24.1 99.81     Rain Showers
11:00 3.8 3.1 96 1 16 19.3 99.83     Rain Showers
12:00 5.1 4.0 92 34 16 19.3 99.82     LegendNANA
13:00 6.6 3.8 82 33 13 24.1 99.83     LegendNANA
14:00 7.2 3.0 74 27 14 24.1 99.87     Mostly Cloudy
15:00 8.2 0.5 58 29 20 24.1 99.94     LegendNANA
16:00 7.8 -0.2 57 30 9 24.1 100.00     LegendNANA
17:00 6.3 0.0 64 29 9 24.1 100.08     Mainly Clear
18:00 2.3 0.4 87 36 2 24.1 100.16     LegendNANA
19:00 1.1 -0.1 92 22 5 24.1 100.25     LegendNANA
20:00 3.7 1.0 82 26 8 24.1 100.31     Mainly Clear
21:00 -1.7 -2.4 95 36 2 24.1 100.36   -2 LegendNANA
22:00 -1.6 -2.0 97 19 5 24.1 100.44   -3 LegendNANA
23:00 -2.4 -2.8 97 36 1 24.1 100.47   -3 Mainly Clear

Notes on Data Quality.

Legend

  • E = Estimated
  • M = Missing
  • NA = Not Available
Date modified: